Hauptseite
METAR-TAF:

METAR-TAF

Flughäfen :

Flughafen Kōbe

Kōbe, Japan

Breite: 34-37-58N, Länge: 135-13-26E, Höhe: 7 m

Beobachtung

Neuester Wetterbericht von vor 1 Stunde und 7 Minuten, um 03:00 UTC
Wind 14 kt aus Nordost
Temperatur 24°C
Luftfeuchtigkeit 69%
Luftdruck 1002 hPa
Sichtweite 10 km oder mehr
Leicht bewölkt in der Höhe von 2000 ft
Durchbrochene Bewölkung

METAR: RJBE 210300Z 05014KT 9999 FEW020 BKN/// 24/18 Q1002

Zeit: 13:07 (04:07 UTC)


TAF: fehlend

Wetterbeobachtungen und Prognosen von mehr als 4000 Flughäfen (METAR und TAF Bericht).

Die verfügbaren Stationen werden durch gelbe und rote Markierungen auf der Karte dargestellt.

Führen Sie die Maus auf sie, um den Namen der Station zu sehen.

Darauf klicken, um die Beobachtung von Wetterbeobachtungen und Prognosen zu sehen.

Um die Karte zu ändern : klicken Sie auf den grünen Tasten mit einem schwarzen Kreuz Zum Vergrößern, auf den grünen Button mit einem Gedankenstrich zu verkleinern, oder auf die grünen Pfeile für benachbarte Karten.


METAR-TAF: